Vertical_Velocity
2 -1 -2 -0 1 -1 -0 -4 -2 5 2 1 4 6 -9 -2 -3 2 3 7 -2 -1 0 3 6 5 3 1 2 4 3 0 3 3 1 -1 -5 -2 2 0 1 6 -1 -0 0 3 -2 -3 -3
0 -2 -2 0 1 -1 -3 0 3 1 7 3 -0 -9 11 -3 1 2 -0 -2 -2 1 2 2 -0 0 -1 2 7 6 7 2 2 1 4 1 -1 2 4 -1 -3 5 -3 2 1 -1 -2 -2 -3
-0 -1 -1 2 -1 -6 2 4 3 -1 1 -1 5 7 2 2 1 -3 0 -2 -2 -0 -1 1 2 1 3 5 4 1 4 2 5 1 -1 -1 -3 2 -3 -2 5 -2 2 -1 3 -2 -2 -2 -3
-0 0 -0 -1 1 4 0 3 -3 2 2 3 -0 -0 2 1 1 0 1 1 -2 3 2 7 6 7 4 4 5 2 2 1 -2 5 5 2 -1 -3 -2 -1 5 -2 0 -1 -3 -2 -1 -3 2
0 1 -0 0 1 -2 -1 2 -0 -2 -3 0 4 4 -2 -7 4 -2 0 -6 10 2 4 4 8 12 9 -3 5 2 -3 2 -2 -0 5 -0 -3 2 2 2 1 -2 -2 -2 2 -7 -2 -1 2
1 1 0 -2 -2 0 5 5 2 -3 1 -4 -5 -0 -1 0 1 -1 -1 -2 5 17 13 6 8 6 11 19 1 -5 -4 -14 4 2 -1 -4 -0 3 -1 -1 2 0 0 1 -5 3 -1 -4 -2
2 1 -6 -1 2 3 5 2 -0 0 -6 0 2 -1 -2 -2 -0 2 1 6 0 21 15 5 12 12 13 46 19 -9 9 -5 7 8 2 -4 2 2 -6 -1 1 -4 -0 -1 -4 2 -1 -5 -3
-2 -3 -1 -1 1 3 2 -1 -2 -0 3 -0 4 -1 2 -2 -1 1 1 5 -4 21 18 7 6 13 -34 -1 31 -5 -2 -3 3 7 -2 6 -2 -4 3 3 -1 1 2 2 1 2 -1 -3 3
-3 -1 -2 -2 -0 4 1 -1 -0 0 -5 -0 1 -3 2 -5 -2 -5 0 1 -2 -2 -1 21 6 23 -19 -4 46 2 -11 8 -2 -9 10 -0 -2 -1 -3 3 -1 2 4 5 1 0 1 1 -4
-8 1 -0 1 3 -2 2 2 1 -1 1 5 1 3 -1 -1 -4 -2 1 1 -0 -1 21 47 12 -9 -34 -8 25 6 -18 -11 -9 -2 4 1 -3 7 4 -1 3 3 -1 -1 5 -1 -1 -1 3
-0 2 -5 -1 2 -2 3 3 -2 2 -2 0 1 -4 0 7 -5 -2 -1 -0 0 4 -4 -3 -1 1 -11 -0 2 6 -24 2 -2 5 3 -2 -2 -3 2 2 4 -1 0 1 1 3 -2 0 2
-0 -2 -6 1 4 -2 2 0 7 0 -1 -3 -5 6 1 7 3 0 -3 2 -5 2 -3 2 8 6 0 -28 6 3 2 -1 -2 9 0 4 1 3 1 2 -2 -1 5 -1 2 -2 -4 0 -0
-1 4 -10 7 -1 1 1 -1 5 -4 -1 3 2 0 5 -1 1 -2 -6 -2 1 0 -4 4 -12 -2 -11 11 5 -1 5 3 6 5 1 5 -2 0 -5 4 -3 7 0 -1 -4 1 -3 -1 1
-3 -3 -1 -3 -11 2 0 1 -1 -0 3 4 -5 2 1 -5 1 0 -2 -9 -8 -0 -5 -1 5 -0 -10 -8 1 -0 0 -3 1 -0 3 5 -3 -0 -1 2 2 -0 -0 0 -6 3 1 -3 0
4 -4 7 3 1 -1 2 1 4 3 1 6 -4 -3 0 -5 -0 -0 -4 -2 -0 -0 -3 4 1 2 2 5 -0 -3 4 -0 7 1 -1 -1 2 -3 4 -1 -0 2 4 1 -2 -3 -2 -6 2
3 -2 -4 -0 -1 -1 1 6 3 2 0 5 -2 -0 -0 -2 0 -0 -1 0 -4 2 -1 -3 5 -0 -1 2 3 2 1 6 3 3 1 -1 -0 -3 4 3 -1 -4 1 0 -4 1 1 -9 4
-1 -1 -2 2 -0 -3 1 -0 3 4 -7 5 -1 0 1 -2 -5 -2 -4 0 -2 5 2 -1 -0 0 1 3 4 2 -3 2 -3 -2 1 -1 3 2 2 1 1 2 -4 1 -5 -1 -4 -3 -0
-3 -1 -1 2 -0 1 -1 1 -2 -0 -0 -2 -0 -1 1 4 -0 -2 0 -3 -3 1 2 -1 1 3 2 0 -0 0 0 -4 -0 -0 1 6 2 1 2 -0 3 -7 -5 -0 -5 -0 -2 1 -0
7 -1 -0 0 1 -2 3 -0 2 1 2 -3 -6 -2 -1 0 -2 -5 1 -1 -3 -1 0 1 3 4 3 -1 2 4 2 0 -2 -1 1 3 1 3 -4 -1 -2 -0 -0 -2 1 -1 -1 0 3
6 -5 5 -1 -2 -3 -5 -1 0 -2 1 4 3 -6 -4 -4 -2 -1 -2 2 1 4 4 4 3 -1 3 3 4 -4 1 -2 6 0 -3 -0 0 -1 0 1 1 1 -2 -0 -1 2 1 1 0
7 -6 -2 0 1 1 -4 -4 -4 -2 -3 -1 -1 6 -1 -1 0 -3 -2 1 -1 -4 -2 0 -0 -1 2 1 -2 7 2 -1 -2 0 0 2 -6 -1 1 0 0 0 -1 -2 1 1 1 3 3
3 5 -2 -1 2 1 -2 -3 -5 -1 1 -3 4 -2 -2 -3 1 -1 -4 -4 -0 5 1 2 -1 1 -0 4 1 3 0 -6 2 7 -1 -3 1 -2 1 1 0 1 0 2 -0 -0 2 1 -3
2 3 1 3 -1 1 -0 -0 -2 -4 -7 -4 -0 -1 2 2 0 0 0 4 1 -2 -0 2 3 2 2 1 -2 0 -1 4 1 4 5 1 -3 0 2 1 1 1 1 3 4 7 4 4 -8
-0 4 2 -2 -0 2 -1 3 -4 -4 2 -1 2 -0 3 5 -9 5 4 -0 3 1 2 2 4 -0 -2 0 2 0 1 4 2 5 2 1 4 1 1 1 2 0 0 2 1 -6 -1 -7 3
-1 2 -1 2 2 -2 -1 -1 -12 0 -2 -2 -4 -1 0 6 12 4 -1 1 2 2 4 3 2 6 2 3 7 8 3 3 1 3 2 0 4 3 -0 0 1 1 3 3 -5 8 5 -3 -0
1 5 -5 -2 -1 0 1 -3 -1 2 0 -1 -3 -4 -0 -2 -1 -3 7 4 3 2 2 4 1 4 10 6 -2 3 1 2 0 0 3 3 1 4 2 4 2 2 5 -3 -1 0 -3 1 2
-3 1 2 -0 -1 -0 -0 -2 -8 1 -1 -4 -1 -6 -2 -2 -1 -2 -4 -2 7 4 2 3 3 6 2 13 6 2 2 1 -1 3 4 1 5 1 7 4 -5 0 -1 7 -2 0 -1 0 -2
2 6 -0 -1 -0 0 -1 -2 -6 5 0 -2 -3 -1 -4 -5 -3 -1 -3 -3 -6 2 4 2 2 2 -0 -1 1 1 1 1 -2 3 4 6 2 -1 -8 -1 6 2 -2 -7 6 -0 11 9 -1
-2 -4 -2 1 -1 -1 -1 -5 0 1 2 3 2 -1 -4 2 0 -1 0 -0 -1 -2 -2 0 1 3 0 -2 -1 -3 -1 -1 -0 1 2 -4 -1 0 2 4 1 4 -4 9 -1 -1 2 7 -1
4 2 3 2 -4 0 -0 -19 -0 -0 7 6 2 4 -0 -4 -1 -3 -2 -0 -2 -1 -1 -5 -2 -3 -2 0 -1 5 -2 4 -1 -0 -6 1 -0 1 2 0 8 32 -7 -3 1 1 19 -2 -3
Height
3136 3137 3138 3139 3144 3140 3139 3141 3141 3142 3141 3140 3142 3143 3146 3144 3146 3149 3145 3146 3146 3148 3151 3154 3156 3158 3161 3164 3167 3170 3173 3176 3177 3179 3179 3180 3181 3183 3185 3186 3187 3188 3189 3189 3190 3189 3189 3189 3188
3135 3136 3137 3137 3139 3138 3138 3138 3138 3138 3138 3139 3139 3142 3143 3142 3142 3144 3144 3145 3145 3146 3148 3151 3153 3156 3160 3164 3167 3170 3173 3175 3176 3177 3178 3179 3180 3183 3185 3186 3188 3188 3189 3189 3190 3190 3190 3190 3189
3134 3135 3136 3135 3135 3136 3136 3134 3135 3136 3137 3138 3139 3140 3140 3140 3140 3141 3141 3142 3143 3144 3145 3148 3151 3154 3158 3162 3165 3169 3171 3173 3175 3176 3178 3179 3181 3183 3185 3187 3187 3189 3190 3190 3190 3190 3191 3191 3190
3133 3134 3135 3134 3133 3134 3134 3134 3134 3134 3135 3137 3138 3138 3138 3138 3138 3139 3139 3140 3140 3141 3143 3146 3149 3153 3156 3159 3163 3166 3170 3172 3175 3175 3177 3178 3181 3184 3185 3187 3187 3189 3191 3191 3190 3190 3191 3191 3191
3133 3132 3133 3132 3132 3133 3133 3132 3132 3132 3132 3133 3134 3136 3136 3137 3137 3138 3137 3137 3139 3139 3142 3144 3146 3149 3154 3157 3161 3165 3167 3171 3172 3174 3176 3178 3181 3184 3185 3186 3188 3189 3190 3190 3191 3191 3190 3190 3190
3132 3132 3133 3132 3132 3132 3131 3130 3129 3130 3129 3130 3133 3134 3135 3135 3134 3135 3136 3135 3136 3137 3139 3140 3144 3146 3146 3151 3156 3161 3165 3171 3171 3174 3175 3179 3181 3184 3185 3186 3188 3188 3189 3191 3191 3189 3190 3190 3189
3131 3131 3132 3131 3131 3131 3130 3128 3127 3128 3128 3130 3130 3131 3133 3133 3132 3131 3133 3133 3134 3136 3136 3137 3136 3135 3138 3148 3153 3158 3165 3168 3171 3174 3175 3180 3181 3184 3186 3187 3188 3189 3190 3190 3190 3190 3190 3190 3190
3130 3132 3131 3131 3130 3131 3128 3127 3127 3128 3129 3129 3130 3130 3131 3129 3130 3130 3130 3131 3132 3134 3133 3134 3132 3127 3139 3147 3151 3153 3162 3165 3170 3174 3178 3178 3181 3184 3186 3188 3189 3190 3191 3190 3190 3189 3190 3189 3189
3130 3132 3131 3131 3130 3130 3128 3127 3127 3128 3128 3127 3128 3128 3127 3128 3129 3129 3128 3127 3127 3129 3130 3127 3129 3126 3132 3145 3150 3152 3158 3162 3168 3175 3177 3179 3183 3185 3186 3188 3189 3190 3191 3190 3190 3188 3188 3187 3186
3131 3131 3130 3130 3129 3128 3127 3127 3126 3127 3126 3126 3124 3124 3125 3125 3125 3126 3125 3125 3124 3125 3126 3124 3127 3125 3133 3140 3148 3148 3151 3161 3169 3174 3177 3180 3182 3185 3187 3188 3188 3189 3190 3190 3189 3188 3187 3186 3184
3131 3130 3130 3130 3129 3127 3127 3127 3127 3125 3124 3123 3122 3122 3123 3122 3123 3124 3122 3122 3123 3123 3125 3126 3127 3128 3130 3139 3144 3149 3156 3162 3167 3173 3176 3180 3183 3185 3187 3188 3188 3189 3188 3188 3187 3185 3185 3185 3184
3130 3130 3129 3128 3128 3127 3126 3126 3126 3126 3124 3122 3121 3121 3122 3122 3124 3121 3120 3121 3121 3121 3123 3126 3126 3128 3129 3138 3148 3151 3158 3164 3169 3173 3176 3178 3181 3184 3185 3187 3187 3188 3187 3186 3185 3183 3183 3182 3181
3130 3129 3129 3128 3127 3126 3125 3126 3125 3125 3122 3123 3122 3120 3122 3123 3123 3121 3121 3120 3121 3122 3122 3123 3128 3131 3136 3143 3147 3153 3159 3164 3169 3173 3176 3178 3179 3182 3184 3185 3185 3185 3184 3184 3183 3181 3180 3180 3179
3129 3128 3127 3128 3128 3127 3126 3126 3125 3125 3123 3124 3125 3122 3125 3125 3124 3125 3126 3127 3126 3126 3130 3129 3132 3136 3141 3146 3151 3154 3159 3164 3169 3172 3174 3176 3178 3180 3182 3182 3182 3182 3182 3181 3179 3179 3178 3176 3175
3128 3128 3127 3127 3127 3127 3127 3126 3125 3125 3124 3125 3126 3126 3127 3127 3125 3127 3129 3131 3131 3132 3136 3136 3137 3141 3144 3148 3152 3156 3161 3165 3167 3170 3172 3174 3176 3179 3179 3180 3179 3179 3177 3176 3176 3175 3173 3173 3172
3127 3127 3127 3127 3127 3127 3128 3127 3125 3124 3124 3126 3127 3128 3128 3129 3128 3129 3130 3132 3134 3136 3138 3140 3142 3144 3147 3149 3153 3157 3161 3163 3165 3167 3170 3172 3174 3176 3177 3177 3175 3174 3174 3172 3172 3171 3170 3168 3167
3126 3126 3126 3126 3126 3127 3127 3127 3126 3125 3125 3127 3128 3129 3129 3130 3131 3131 3133 3135 3137 3138 3140 3142 3144 3146 3149 3152 3156 3158 3160 3162 3164 3166 3168 3170 3171 3173 3174 3173 3170 3169 3170 3168 3168 3167 3166 3166 3164
3125 3125 3125 3125 3126 3126 3126 3127 3127 3127 3126 3127 3128 3129 3130 3132 3133 3134 3135 3137 3139 3141 3142 3145 3147 3149 3151 3153 3156 3158 3160 3162 3163 3165 3166 3167 3169 3169 3169 3168 3167 3166 3166 3165 3165 3164 3163 3162 3160
3123 3123 3124 3125 3125 3127 3125 3125 3126 3127 3127 3127 3128 3129 3131 3133 3134 3135 3136 3139 3140 3142 3144 3147 3148 3150 3152 3155 3157 3158 3159 3161 3161 3162 3163 3164 3165 3165 3165 3164 3163 3162 3162 3162 3161 3160 3158 3157 3155
3122 3122 3123 3124 3124 3125 3124 3124 3123 3124 3127 3128 3129 3130 3131 3133 3134 3136 3137 3139 3141 3143 3145 3147 3148 3150 3152 3154 3156 3157 3157 3158 3158 3159 3160 3161 3160 3161 3159 3159 3158 3158 3158 3158 3156 3155 3153 3151 3148
3120 3120 3122 3123 3122 3122 3121 3121 3121 3122 3124 3126 3128 3129 3130 3131 3133 3135 3137 3138 3139 3141 3143 3145 3147 3149 3151 3152 3152 3153 3154 3156 3157 3157 3156 3155 3155 3156 3156 3155 3154 3154 3153 3152 3151 3149 3147 3145 3143
3118 3119 3120 3120 3121 3120 3121 3121 3119 3119 3121 3122 3125 3127 3129 3130 3131 3133 3134 3136 3138 3140 3141 3143 3144 3145 3147 3148 3150 3152 3152 3153 3153 3152 3151 3150 3151 3151 3151 3150 3150 3149 3148 3147 3145 3143 3141 3139 3135
3117 3117 3118 3118 3118 3119 3118 3120 3117 3117 3118 3118 3120 3122 3125 3127 3129 3130 3132 3134 3136 3138 3139 3140 3141 3143 3144 3145 3146 3147 3147 3148 3148 3147 3146 3146 3146 3146 3146 3146 3145 3144 3143 3141 3140 3138 3134 3132 3130
3114 3115 3116 3115 3115 3117 3115 3117 3114 3115 3115 3115 3116 3117 3119 3123 3126 3127 3129 3131 3133 3134 3135 3136 3136 3138 3139 3139 3140 3141 3142 3143 3142 3142 3141 3141 3141 3141 3141 3140 3139 3137 3136 3135 3133 3130 3127 3123 3120
3111 3113 3114 3113 3114 3112 3113 3114 3112 3112 3111 3111 3111 3111 3112 3115 3119 3122 3124 3127 3129 3130 3132 3133 3133 3133 3135 3135 3135 3137 3137 3137 3137 3136 3135 3136 3135 3136 3135 3134 3133 3132 3130 3127 3125 3121 3117 3115 3111
3107 3109 3110 3110 3110 3110 3110 3110 3109 3109 3108 3107 3106 3107 3106 3107 3110 3113 3117 3121 3124 3126 3128 3129 3130 3130 3131 3132 3132 3132 3133 3132 3130 3129 3130 3129 3130 3130 3128 3128 3126 3124 3122 3119 3115 3110 3109 3105 3101
3105 3107 3108 3107 3108 3109 3107 3107 3107 3106 3105 3104 3103 3103 3103 3103 3106 3108 3110 3113 3117 3120 3123 3124 3125 3126 3127 3126 3127 3127 3126 3125 3124 3124 3123 3123 3123 3123 3121 3119 3117 3116 3113 3110 3107 3103 3100 3097 3093
3103 3105 3106 3106 3107 3108 3105 3105 3104 3104 3103 3102 3101 3100 3100 3101 3102 3104 3106 3108 3110 3113 3116 3118 3119 3121 3121 3121 3121 3121 3120 3119 3118 3117 3117 3116 3114 3113 3111 3111 3110 3108 3105 3101 3098 3094 3091 3088 3084
3101 3102 3103 3104 3104 3103 3104 3103 3102 3102 3103 3102 3102 3100 3099 3099 3099 3100 3102 3104 3105 3108 3110 3112 3114 3116 3116 3116 3116 3114 3113 3112 3111 3110 3109 3107 3106 3105 3105 3103 3102 3099 3095 3091 3088 3086 3082 3078 3074
3096 3097 3099 3100 3101 3100 3100 3099 3099 3099 3099 3100 3100 3099 3099 3099 3098 3099 3100 3101 3104 3106 3108 3110 3111 3111 3111 3111 3110 3109 3108 3106 3105 3103 3102 3101 3100 3099 3097 3095 3093 3087 3087 3083 3080 3076 3071 3068 3065